Location: Ambatotampy
(18.8181°S, 47.6186°E)
Time: 00:07:55
(UTC+00:00)

Orbus 7S - Pass Details

Date: 21 January 2021
Orbit: 361 x 12745 km, 26.9° (Epoch: 24 February)

Event Time Altitude Azimuth Distance (km) Brightness Sun altitude
Rises 01:50:34 0° 250° (WSW) 4,436 8.0 -9.1°
Reaches altitude 10° 01:54:44 10° 251° (WSW) 2,463 6.7 -8.2°
Maximum altitude 01:59:24 80° 337° (NNW) 465 3.4 -7.2°
Drops below altitude 10° 02:01:56 10° 65° (ENE) 1,355 6.5 -6.7°
Sets 02:03:35 0° 66° (ENE) 2,184 7.6 -6.3°
